• In Spain
  • List of Countries
  • For 7 days
  • Water Temperature
  • Satellite Maps
  • Weather Map
  • Weather Widgets
  • user-avatar
    Login

    Hourly Weather Rio de Mouro

    Today, 17 December, Sunday

    Time Temperature Precipitation Wind Pressure Humidity
    00:00 +5°C° 0 mm 5 mps 759 mmHg 68%
    01:00 +5°C° 0 mm 5 mps 759 mmHg 68%
    02:00 +3°C° 0 mm 5 mps 759 mmHg 69%
    03:00 +4°C° 0 mm 4 mps 760 mmHg 69%
    04:00 +4°C° 0 mm 4 mps 760 mmHg 69%
    05:00 +3°C° 0 mm 4 mps 760 mmHg 69%
    06:00 +4°C° 0 mm 4 mps 760 mmHg 67%
    07:00 +4°C° 0 mm 4 mps 761 mmHg 65%
    08:00 +4°C° 0 mm 4 mps 761 mmHg 63%
    09:00 +7°C° 0 mm 3 mps 761 mmHg 56%
    10:00 +9°C° 0 mm 3 mps 761 mmHg 50%
    11:00 +11°C° 0 mm 3 mps 762 mmHg 43%
    12:00 +12°C° 0 mm 3 mps 761 mmHg 42%
    13:00 +13°C° 0 mm 3 mps 761 mmHg 40%
    14:00 +13°C° 0 mm 3 mps 761 mmHg 38%
    15:00 +12°C° 0 mm 3 mps 761 mmHg 43%
    16:00 +10°C° 0 mm 3 mps 762 mmHg 48%
    17:00 +7°C° 0 mm 4 mps 762 mmHg 52%
    18:00 +7°C° 0 mm 4 mps 762 mmHg 55%
    19:00 +6°C° 0 mm 4 mps 762 mmHg 58%
    20:00 +6°C° 0 mm 4 mps 763 mmHg 60%
    21:00 +5°C° 0 mm 4 mps 763 mmHg 62%
    22:00 +5°C° 0 mm 4 mps 763 mmHg 65%
    23:00 +4°C° 0 mm 3 mps 763 mmHg 67%

    Tomorrow, 18 December, Monday

    Time Temperature Precipitation Wind Pressure Humidity
    00:00 +4°C° 0 mm 3 mps 763 mmHg 67%
    01:00 +4°C° 0 mm 3 mps 763 mmHg 68%
    02:00 +4°C° 0 mm 3 mps 762 mmHg 68%
    03:00 +3°C° 0 mm 3 mps 762 mmHg 69%
    04:00 +3°C° 0 mm 4 mps 762 mmHg 69%
    05:00 +3°C° 0 mm 4 mps 762 mmHg 69%
    06:00 +3°C° 0 mm 4 mps 763 mmHg 67%
    07:00 +4°C° 0 mm 4 mps 763 mmHg 65%
    08:00 +4°C° 0 mm 4 mps 763 mmHg 63%
    09:00 +6°C° 0 mm 4 mps 763 mmHg 56%
    10:00 +10°C° 0 mm 3 mps 763 mmHg 50%
    11:00 +12°C° 0 mm 3 mps 763 mmHg 43%
    12:00 +13°C° 0 mm 3 mps 763 mmHg 42%
    13:00 +13°C° 0 mm 3 mps 762 mmHg 40%
    14:00 +14°C° 0 mm 3 mps 762 mmHg 39%
    15:00 +12°C° 0 mm 4 mps 762 mmHg 44%
    16:00 +11°C° 0 mm 4 mps 762 mmHg 49%
    17:00 +8°C° 0 mm 4 mps 762 mmHg 55%
    18:00 +8°C° 0 mm 4 mps 762 mmHg 57%
    19:00 +7°C° 0 mm 4 mps 762 mmHg 59%
    20:00 +7°C° 0 mm 4 mps 762 mmHg 61%
    21:00 +6°C° 0 mm 4 mps 762 mmHg 63%
    22:00 +6°C° 0 mm 4 mps 762 mmHg 65%
    23:00 +6°C° 0 mm 4 mps 762 mmHg 67%

    Day after tomorrow, 19 December, Tuesday

    Time Temperature Precipitation Wind Pressure Humidity
    00:00 +6°C° 0 mm 4 mps 762 mmHg 68%
    01:00 +5°C° 0 mm 3 mps 762 mmHg 69%
    02:00 +5°C° 0 mm 3 mps 761 mmHg 70%
    03:00 +5°C° 0 mm 3 mps 761 mmHg 70%
    04:00 +5°C° 0 mm 3 mps 761 mmHg 70%
    05:00 +5°C° 0 mm 3 mps 761 mmHg 70%
    06:00 +7°C° 0 mm 3 mps 761 mmHg 67%
    07:00 +7°C° 0 mm 3 mps 761 mmHg 65%
    08:00 +8°C° 0 mm 2 mps 762 mmHg 62%
    09:00 +10°C° 0 mm 3 mps 762 mmHg 55%
    10:00 +12°C° 0 mm 3 mps 762 mmHg 49%
    11:00 +16°C° 0 mm 3 mps 762 mmHg 42%
    12:00 +17°C° 0 mm 3 mps 761 mmHg 42%
    13:00 +17°C° 0 mm 3 mps 761 mmHg 43%
    14:00 +18°C° 0 mm 3 mps 760 mmHg 43%
    15:00 +16°C° 0 mm 3 mps 760 mmHg 49%
    16:00 +14°C° 0 mm 3 mps 760 mmHg 56%
    17:00 +12°C° 0 mm 3 mps 760 mmHg 62%
    18:00 +12°C° 0 mm 3 mps 761 mmHg 65%
    19:00 +11°C° 0 mm 3 mps 761 mmHg 68%
    20:00 +11°C° 0 mm 3 mps 761 mmHg 71%
    21:00 +10°C° 0 mm 3 mps 761 mmHg 75%
    22:00 +10°C° 0 mm 3 mps 761 mmHg 78%
    23:00 +9°C° 0 mm 3 mps 761 mmHg 81%

    20 December, Wednesday

    Time Temperature Precipitation Wind Pressure Humidity
    00:00 +9°C° 0 mm 3 mps 761 mmHg 83%
    01:00 +9°C° 0 mm 3 mps 761 mmHg 84%
    02:00 +8°C° 0 mm 3 mps 761 mmHg 86%
    03:00 +8°C° 0 mm 3 mps 761 mmHg 86%
    04:00 +8°C° 0 mm 3 mps 761 mmHg 86%
    05:00 +7°C° 0 mm 3 mps 761 mmHg 85%
    06:00 +8°C° 0 mm 3 mps 762 mmHg 83%
    07:00 +8°C° 0 mm 3 mps 762 mmHg 81%
    08:00 +9°C° 0 mm 3 mps 762 mmHg 79%
    09:00 +11°C° 0 mm 3 mps 763 mmHg 70%
    10:00 +13°C° 0 mm 3 mps 763 mmHg 61%
    11:00 +16°C° 0 mm 2 mps 763 mmHg 52%
    12:00 +16°C° 0 mm 2 mps 763 mmHg 51%
    13:00 +18°C° 0 mm 1 mps 762 mmHg 49%
    14:00 +19°C° 0 mm 1 mps 762 mmHg 47%
    15:00 +16°C° 0 mm 1 mps 762 mmHg 53%
    16:00 +14°C° 0 mm 1 mps 762 mmHg 59%
    17:00 +13°C° 0 mm 1 mps 762 mmHg 65%
    18:00 +12°C° 0 mm 2 mps 763 mmHg 68%
    19:00 +10°C° 0 mm 2 mps 763 mmHg 71%
    20:00 +10°C° 0 mm 2 mps 763 mmHg 74%
    21:00 +9°C° 0 mm 2 mps 763 mmHg 75%
    22:00 +9°C° 0 mm 2 mps 763 mmHg 76%
    23:00 +8°C° 0 mm 2 mps 763 mmHg 77%

    21 December, Thursday

    Time Temperature Precipitation Wind Pressure Humidity
    00:00 +8°C° 0 mm 2 mps 763 mmHg 76%
    01:00 +8°C° 0 mm 2 mps 763 mmHg 75%
    02:00 +7°C° 0 mm 2 mps 763 mmHg 73%
    03:00 +7°C° 0 mm 2 mps 763 mmHg 70%
    04:00 +7°C° 0 mm 3 mps 763 mmHg 67%
    05:00 +5°C° 0 mm 3 mps 763 mmHg 64%
    06:00 +7°C° 0 mm 3 mps 763 mmHg 62%
    07:00 +7°C° 0 mm 3 mps 764 mmHg 59%
    08:00 +7°C° 0 mm 3 mps 764 mmHg 57%
    09:00 +9°C° 0 mm 3 mps 764 mmHg 52%
    10:00 +12°C° 0 mm 3 mps 765 mmHg 47%
    11:00 +14°C° 0 mm 3 mps 765 mmHg 41%
    12:00 +15°C° 0 mm 2 mps 764 mmHg 41%
    13:00 +16°C° 0 mm 2 mps 764 mmHg 40%
    14:00 +18°C° 0 mm 1 mps 764 mmHg 40%
    15:00 +15°C° 0 mm 1 mps 764 mmHg 45%
    16:00 +14°C° 0 mm 1 mps 765 mmHg 51%
    17:00 +12°C° 0 mm 1 mps 765 mmHg 56%
    18:00 +10°C° 0 mm 2 mps 765 mmHg 59%
    19:00 +10°C° 0 mm 2 mps 765 mmHg 62%
    20:00 +9°C° 0 mm 2 mps 766 mmHg 64%
    21:00 +9°C° 0 mm 2 mps 766 mmHg 66%
    22:00 +8°C° 0 mm 2 mps 766 mmHg 67%
    23:00 +8°C° 0 mm 2 mps 766 mmHg 68%

    22 December, Friday

    Time Temperature Precipitation Wind Pressure Humidity
    00:00 +7°C° 0 mm 2 mps 765 mmHg 69%
    01:00 +7°C° 0 mm 2 mps 765 mmHg 69%
    02:00 +7°C° 0 mm 2 mps 765 mmHg 70%
    03:00 +7°C° 0 mm 2 mps 765 mmHg 70%
    04:00 +6°C° 0 mm 2 mps 765 mmHg 71%
    05:00 +6°C° 0 mm 2 mps 765 mmHg 71%
    06:00 +7°C° 0 mm 2 mps 765 mmHg 70%
    07:00 +7°C° 0 mm 2 mps 765 mmHg 68%
    08:00 +8°C° 0 mm 2 mps 765 mmHg 67%
    09:00 +10°C° 0 mm 2 mps 765 mmHg 60%
    10:00 +13°C° 0 mm 2 mps 765 mmHg 54%
    11:00 +15°C° 0 mm 2 mps 765 mmHg 47%
    12:00 +16°C° 0 mm 3 mps 765 mmHg 46%
    13:00 +16°C° 0 mm 3 mps 764 mmHg 46%
    14:00 +17°C° 0 mm 4 mps 764 mmHg 45%
    15:00 +14°C° 0 mm 4 mps 764 mmHg 52%
    16:00 +13°C° 0 mm 4 mps 764 mmHg 59%
    17:00 +11°C° 0 mm 4 mps 764 mmHg 65%
    18:00 +10°C° 0 mm 4 mps 764 mmHg 67%
    19:00 +10°C° 0 mm 4 mps 764 mmHg 70%
    20:00 +8°C° 0 mm 4 mps 764 mmHg 72%
    21:00 +8°C° 0 mm 4 mps 764 mmHg 71%
    22:00 +8°C° 0 mm 4 mps 764 mmHg 70%
    23:00 +7°C° 0 mm 4 mps 764 mmHg 69%
    Show more